Terug naar catalogus

STARLINK-35392

ActiefCommunicatieVLEO
NORAD 65823·PAYLOAD·🇺🇸 United States

Gelanceerd Sep 29, 2025 vanaf Vandenberg Space Force Base

Loading…

Volgende Passages (komende 24 uur)

TLE

VersSource: CelesTrak SupGP

Epoch: Sep 14, 2026, 22:42 UTC

1 65823C 25221A   26257.94631944  .00056120  00000+0  16583-2 0  2573
2 65823  53.1580 287.5434 0001075  89.5032 276.6684 15.34358437    14

Volg STARLINK-35392 in realtime met AllMySat

Download on the App Store